Preview of NWS' New Version of Forecast
This preview is not operational and should not be used for support decisions.

Regional Weather Roundup (RWR)

Issued by National Weather Service (NWS)

                            
792 
ASUS44 KLIX 200505
RWRLA 
LOUISIANA WEATHER ROUNDUP
NATIONAL WEATHER SERVICE NEW ORLEANS LA
1200 AM CDT WED JUN 20 2018

NOTE: "FAIR" INDICATES FEW OR NO CLOUDS BELOW 12,000 FEET WITH NO
      SIGNIFICANT WEATHER AND/OR OBSTRUCTIONS TO VISIBILITY.
      SKY/WX - SKY CONDITION AND SIGNIFICANT WEATHER.
      TMP - AIR TEMPERATURE.    DP   - DEWPOINT TEMPERATURE.
      RH  - RELATIVE HUMIDITY.  PRES - PRESSURE.
      HX  - HEAT INDEX.         WCI  - WIND CHILL INDEX.

*  THESE STATIONS ARE NOT NWS OR FAA STATIONS AND ARE NOT UNDER
   NWS QUALITY CONTROL.

LAZ040-048-061>063-065-066-069-200600-
SOUTHEAST LOUISIANA
  
CITY           SKY/WX    TMP DP  RH WIND       PRES   REMARKS
N.O. INTL ARPT MOCLDY    81  78  91 SE7       29.97S                  
N.O. LAKEFRONT FAIR      80  76  87 SE5       29.97S                  
N.O. DOWNTOWN* FAIR      82  77  84 S7        29.98S                  
RESERVE*         N/A     79  76  89 CALM      29.97F                  
SLIDELL        FAIR      75  73  93 CALM      29.97S                  
BATON ROUGE    FAIR      75  73  93 CALM      29.97S                  
BOOTHVILLE     FAIR      82  78  88 SE3       29.98F                  
BELLE CHASSE   FAIR      80  80 100 SE6       29.97S                  
BOGALUSA*      FAIR      76  72  87 CALM      29.99S                  
GALLIANO*      FAIR      78  74  88 CALM      29.97S                  
NEW ROADS*     FAIR      75  73  92 CALM      29.97S                  
GONZALES*      FAIR      74  74  99 CALM      29.96S FOG              
HAMMOND*       FAIR      73  73 100 CALM      29.97S                  
HOUMA*         FAIR      79  76  92 S5        29.97S                  
PORT FOURCHON* PTCLDY    82  77  83 S9        29.97S                  

$$

LAZ041-044-053-054-200600-
SOUTHWEST LOUISIANA
  
CITY           SKY/WX    TMP DP  RH WIND       PRES   REMARKS
LAKE CHARLES   FAIR      79  77  94 SE7       29.93R                  
LAFAYETTE      FAIR      77  76  96 CALM      29.95F                  
PATTERSON      FAIR      78  77  96 SE3       29.96F                  
SALT POINT       N/A    N/A N/A N/A VRB3      29.93F                  
NEW IBERIA     FAIR      77  74  90 SE3       29.96S                  
CHENAULT AIRPK FAIR      77  76  97 E5        29.94R                  

$$

LAZ027-028-200600-
CENTRAL LOUISIANA
  
CITY           SKY/WX    TMP DP  RH WIND       PRES   REMARKS
FORT POLK      CLOUDY    75  73  93 SE6       29.94S                  
ALEXANDRIA INT FAIR      76  74  93 E6        29.94S                  
ALEXANDRIA     CLOUDY    74  74 100 CALM      29.96S                  

$$

LAZ001-002-200600-
NORTHWEST LOUISIANA
  
CITY           SKY/WX    TMP DP  RH WIND       PRES   REMARKS
SHREVEPORT     CLOUDY    76  73  91 SE6       29.95R                  
BARKSDALE AFB  CLOUDY    74  71  91 E5        29.96R                  
DTN SHREVEPORT FAIR      77  72  84 E6        29.96R                  

$$

LAZ014-016-200600-
NORTHEAST LOUISIANA
  
CITY           SKY/WX    TMP DP  RH WIND       PRES   REMARKS
MONROE         FAIR      74  72  93 CALM      29.99S                  
TALLULAH       FAIR      75  75 100 CALM      29.99S                  

$$